Weather History for KVBG - August, 2013

Change the Weather History Date:

Thursday, August 29, 2013

  Actual Average Record
Temperature  
Mean Temperature 61 °F -  
Max Temperature 68 °F 65 °F 80 °F (2008)
Min Temperature 54 °F 53 °F 46 °F (1996)
Degree Days  
Heating Degree Days 4    
Growing Degree Days 11 (Base 50)    
Moisture  
Dew Point 57 °F    
Average Humidity 87    
Maximum Humidity 100    
Minimum Humidity 70    
Precipitation  
Precipitation 0.00 in - - ()
Sea Level Pressure  
Sea Level Pressure 29.98 in    
Wind  
Wind Speed 8 mph (NNW)    
Max Wind Speed 18 mph    
Max Gust Speed 24 mph    
Visibility 2 miles    
Events Fog    
Averages and records for this station are not official NWS values.
T = Trace of Precipitation, MM = Missing Value Source: NWS Daily Summary

Daily Weather History Graph

Daily Weather History Graph

Search for Another Location

Airport or City:

Trip Planner

Search our weather history database for the weather conditions in past years. The results will help you decide how hot, cold, wet, or windy it might be!

Date:

Astronomy

Aug. 29, 2013 Rise Set
Actual Time 6:33 AM PDT 7:32 PM PDT
Civil Twilight 6:07 AM PDT 7:58 PM PDT
Nautical Twilight 5:36 AM PDT 8:28 PM PDT
Astronomical Twilight 5:05 AM PDT 9:00 PM PDT
Moon 12:35 AM PDT (8/29) 2:58 PM PDT (8/29)
Length of Visible Light 13h 50m
Length of Day
12h 58m
Last Quarter, 37% of the Moon is Illuminated
Aug 29
Last Quarter
Sep 5
New
Sep 12
First Quarter
Sep 19
Full
Sep 26
Last Quarter

Hourly Weather History & Observations

Time (PDT) Temp. Dew Point Humidity Pressure Visibility Wind Dir Wind Speed Gust Speed Precip Events Conditions
12:12 AM 57.2 °F 55.4 °F 94% 29.97 in 0.5 mi North 4.6 mph - N/A Fog Fog
12:47 AM - - N/A% 29.98 in 0.2 mi NNW 9.2 mph - N/A Fog Fog
12:55 AM - - N/A% 29.98 in 0.2 mi NNW 9.2 mph - N/A Fog Fog
1:19 AM - - N/A% 29.98 in 0.5 mi NNW 10.4 mph - N/A Fog Fog
1:33 AM - - N/A% 29.98 in 0.8 mi NNW 9.2 mph - N/A   Mist
1:51 AM - - N/A% 29.98 in 1.2 mi NNW 10.4 mph - N/A   Overcast
1:55 AM - - N/A% 29.98 in 1.2 mi NNW 11.5 mph - N/A   Overcast
2:02 AM - - N/A% 29.98 in 1.0 mi North 8.1 mph - N/A   Mist
2:17 AM - - N/A% 29.98 in 1.5 mi NNE 8.1 mph - N/A   Overcast
2:19 AM - - N/A% 29.98 in 2.0 mi NNE 6.9 mph - N/A   Overcast
2:21 AM - - N/A% 29.98 in 3.0 mi NNE 6.9 mph - N/A   Overcast
2:55 AM - - N/A% 29.98 in 5.0 mi NNW 9.2 mph - N/A   Haze
3:13 AM - - N/A% 29.98 in 2.0 mi North 6.9 mph - N/A   Overcast
3:16 AM - - N/A% 29.98 in 1.5 mi North 6.9 mph - N/A   Overcast
3:28 AM - - N/A% 29.98 in 1.8 mi NNW 5.8 mph - N/A   Overcast
3:36 AM - - N/A% 29.98 in 1.5 mi NNW 6.9 mph - N/A   Overcast
3:55 AM - - N/A% 29.97 in 1.2 mi NW 9.2 mph - N/A   Overcast
3:59 AM - - N/A% 29.97 in 0.8 mi NNW 9.2 mph - N/A   Mist
4:09 AM - - N/A% 29.97 in 0.5 mi NNW 9.2 mph - N/A Fog Fog
4:44 AM - - N/A% 29.97 in 0.2 mi NW 5.8 mph - N/A Fog Fog
4:55 AM - - N/A% 29.96 in 0.5 mi WNW 4.6 mph - N/A Fog Fog
5:50 AM - - N/A% 29.97 in 1.0 mi ENE 4.6 mph - N/A   Mist
5:55 AM - - N/A% 29.97 in 1.2 mi ENE 3.5 mph - N/A   Overcast
6:06 AM - - N/A% 29.97 in 0.8 mi East 3.5 mph - N/A   Mist
6:15 AM - - N/A% 29.97 in 0.5 mi ENE 4.6 mph - N/A Fog Fog
6:48 AM - - N/A% 29.99 in 0.2 mi East 6.9 mph - N/A Fog Fog
6:55 AM 54.7 °F 54.0 °F 97% 29.97 in 0.2 mi East 3.5 mph - N/A Fog Fog
7:19 AM - - N/A% 30.00 in 0.8 mi NE 3.5 mph - N/A   Mist
7:23 AM - - N/A% 30.00 in 1.2 mi NNE 4.6 mph - N/A   Overcast
7:31 AM - - N/A% 30.01 in 0.2 mi North 4.6 mph - N/A Fog Fog
7:55 AM 56.5 °F 55.0 °F 95% 29.99 in 0.2 mi NNW 5.8 mph - N/A Fog Fog
8:55 AM 59.0 °F 55.9 °F 90% 29.99 in 0.8 mi NNW 5.8 mph - N/A   Mostly Cloudy
9:28 AM 59.0 °F 55.4 °F 88% 30.02 in 2.5 mi NNW 8.1 mph - N/A   Mostly Cloudy
9:55 AM 58.6 °F 57.0 °F 94% 30.00 in 2.5 mi WNW 3.5 mph - N/A   Mostly Cloudy
10:18 AM 62.6 °F 57.2 °F 82% 30.03 in 4.0 mi NNW 4.6 mph - N/A   Haze
10:43 AM 64.4 °F 57.2 °F 77% 30.03 in 5.0 mi NW 5.8 mph - N/A   Haze
10:44 AM 64.4 °F 57.2 °F 77% 30.03 in 5.0 mi NW 5.8 mph - N/A   Haze
10:55 AM 64.4 °F 57.0 °F 77% 30.00 in 7.0 mi NW 8.1 mph - N/A   Partly Cloudy
11:55 AM 64.4 °F 57.0 °F 77% 30.00 in 7.0 mi NW 15.0 mph - N/A   Partly Cloudy
12:55 PM 66.9 °F 57.0 °F 70% 29.99 in 7.0 mi NW 18.4 mph - N/A   Scattered Clouds
1:55 PM 68.0 °F 57.9 °F 70% 29.99 in 3.0 mi NW 15.0 mph 24.2 mph N/A   Haze
2:30 PM 66.2 °F 59.0 °F 78% 30.00 in 5.0 mi NW 13.8 mph 21.9 mph N/A   Mostly Cloudy
2:55 PM 66.9 °F 57.9 °F 73% 29.97 in 3.0 mi NW 15.0 mph - N/A   Mostly Cloudy
3:55 PM 64.9 °F 57.9 °F 78% 29.96 in 3.0 mi WNW 13.8 mph - N/A   Mostly Cloudy
4:27 PM 62.6 °F 57.2 °F 82% 29.99 in 2.5 mi NW 16.1 mph - N/A   Mostly Cloudy
4:37 PM 62.6 °F 57.2 °F 82% 29.99 in 2.0 mi NW 11.5 mph - N/A   Mostly Cloudy
4:55 PM 62.1 °F 57.9 °F 86% 29.96 in 2.0 mi NW 13.8 mph 20.7 mph N/A   Overcast
5:02 PM 62.6 °F 57.2 °F 82% 29.99 in 4.0 mi NW 15.0 mph - N/A   Haze
5:52 PM 60.8 °F 57.2 °F 88% 29.98 in 2.0 mi NW 12.7 mph - N/A   Overcast
5:55 PM 61.0 °F 57.0 °F 87% 29.98 in 2.5 mi North - - N/A   Overcast
6:03 PM 60.8 °F 57.2 °F 88% 29.98 in 5.0 mi NW 11.5 mph - N/A   Overcast
6:43 PM 60.8 °F 57.2 °F 88% 29.98 in 2.0 mi NW 9.2 mph - N/A   Overcast
6:55 PM 60.1 °F 57.0 °F 90% 29.95 in 3.0 mi NNW 10.4 mph - N/A   Overcast
7:04 PM 60.8 °F 57.2 °F 88% 29.98 in 2.0 mi NW 9.2 mph - N/A   Overcast
7:06 PM 60.8 °F 57.2 °F 88% 29.98 in 1.5 mi NW 8.1 mph - N/A   Overcast
7:13 PM 60.8 °F 57.2 °F 88% 29.98 in 1.0 mi NW 11.5 mph - N/A   Overcast
7:31 PM 59.0 °F 57.2 °F 94% 29.98 in 0.5 mi NW 9.2 mph - N/A Fog Fog
7:55 PM 59.0 °F 57.0 °F 93% 29.96 in 0.5 mi NW 8.1 mph - N/A Fog Fog
8:55 PM 59.0 °F 57.0 °F 93% 29.98 in 0.8 mi NW 6.9 mph - N/A   Mist
9:06 PM 57.2 °F 57.2 °F 100% 30.00 in 0.5 mi NNW 5.8 mph - N/A Fog Fog
9:55 PM 57.9 °F 57.0 °F 97% 29.98 in 0.2 mi NNW 8.1 mph - N/A Fog Fog
10:37 PM 57.2 °F 55.4 °F 94% 30.01 in 0.5 mi NW 6.9 mph - N/A Fog Fog
10:52 PM 57.2 °F 55.4 °F 94% 30.01 in 0.2 mi NW 5.8 mph - N/A Fog Fog
10:55 PM 57.0 °F 55.9 °F 96% 29.98 in 0.2 mi NW 5.8 mph - N/A Fog Fog
11:50 PM - - N/A% 30.00 in 0.5 mi NW 3.5 mph - N/A Fog Fog
11:55 PM 55.9 °F 55.9 °F 100% 29.98 in 0.5 mi Calm Calm - N/A Fog Fog